Total_Precipitation_Accumulation
0.45 0.46 0.59 0.63 0.55 0.56 0.67 0.78 0.96 0.88 0.81 0.67 0.62 0.68 0.72 0.69 0.64 0.60 0.53 0.46 0.49 0.54 0.62 0.65 0.72 0.78 0.78 0.77 0.83 0.91 1.05 1.18 1.26 1.35 1.42 1.36 1.24 1.17 1.24 1.22 1.21 1.32 1.45 1.58
0.35 0.32 0.42 0.50 0.48 0.50 0.53 0.59 0.71 0.76 0.74 0.58 0.53 0.52 0.55 0.53 0.45 0.45 0.46 0.40 0.41 0.46 0.51 0.53 0.56 0.62 0.64 0.72 0.88 0.92 0.97 1.06 1.26 1.37 1.32 1.27 1.17 1.12 1.12 1.12 1.13 1.20 1.32 1.50
0.54 0.39 0.47 0.70 0.66 0.66 0.69 0.63 0.66 0.63 0.51 0.34 0.33 0.36 0.41 0.41 0.39 0.42 0.41 0.38 0.37 0.38 0.40 0.42 0.47 0.56 0.63 0.72 0.83 0.87 0.91 1.05 1.26 1.30 1.21 1.14 1.17 1.18 1.11 1.08 1.13 1.20 1.24 1.25
0.68 0.65 0.98 1.04 0.74 0.71 0.69 0.50 0.37 0.32 0.26 0.23 0.31 0.30 0.29 0.30 0.32 0.35 0.35 0.32 0.31 0.30 0.31 0.35 0.40 0.48 0.57 0.64 0.70 0.76 0.82 0.95 1.13 1.17 1.16 1.19 1.17 1.14 1.05 0.99 1.00 1.05 1.09 1.13
0.82 0.84 0.95 0.83 0.58 0.51 0.55 0.44 0.24 0.22 0.22 0.21 0.25 0.25 0.21 0.22 0.22 0.23 0.23 0.21 0.21 0.22 0.26 0.29 0.29 0.35 0.44 0.48 0.53 0.58 0.68 0.82 0.93 0.96 1.05 1.10 1.04 1.04 0.99 0.91 0.91 0.94 0.99 1.05
1.00 1.12 1.03 0.62 0.38 0.35 0.48 0.63 0.27 0.20 0.20 0.18 0.19 0.26 0.22 0.16 0.16 0.16 0.15 0.14 0.14 0.16 0.21 0.25 0.25 0.28 0.33 0.41 0.45 0.49 0.61 0.74 0.84 0.86 0.89 0.94 1.01 1.00 1.00 0.95 0.92 0.93 0.97 0.98
0.94 1.17 0.94 0.47 0.33 0.37 0.67 0.77 0.39 0.27 0.23 0.20 0.19 0.19 0.16 0.14 0.14 0.14 0.12 0.12 0.13 0.16 0.22 0.25 0.26 0.27 0.28 0.36 0.39 0.45 0.51 0.62 0.71 0.73 0.81 0.92 1.03 1.07 1.10 1.05 0.98 0.97 1.02 1.04
0.85 1.10 0.99 0.47 0.43 0.58 0.64 0.48 0.40 0.33 0.28 0.22 0.16 0.12 0.10 0.11 0.11 0.12 0.12 0.12 0.13 0.16 0.23 0.28 0.29 0.29 0.28 0.32 0.37 0.40 0.41 0.50 0.64 0.74 0.82 0.91 1.04 1.10 1.09 1.09 1.10 1.11 1.08 1.10
0.91 1.02 0.69 0.47 0.53 0.55 0.48 0.43 0.33 0.27 0.22 0.19 0.16 0.14 0.11 0.10 0.11 0.12 0.14 0.15 0.15 0.18 0.24 0.24 0.27 0.31 0.33 0.36 0.38 0.36 0.38 0.42 0.50 0.57 0.62 0.73 0.86 0.99 1.05 1.04 1.06 1.07 1.13 1.19
0.71 0.61 0.40 0.38 0.40 0.37 0.35 0.32 0.26 0.23 0.20 0.17 0.15 0.13 0.14 0.13 0.12 0.13 0.14 0.15 0.17 0.20 0.22 0.22 0.25 0.28 0.31 0.34 0.36 0.38 0.41 0.43 0.45 0.47 0.49 0.57 0.72 0.79 0.85 0.90 0.97 1.06 1.14 1.24
0.69 0.60 0.43 0.35 0.34 0.32 0.29 0.23 0.22 0.25 0.24 0.21 0.18 0.14 0.12 0.12 0.11 0.12 0.14 0.14 0.17 0.20 0.22 0.24 0.24 0.25 0.27 0.28 0.31 0.34 0.38 0.42 0.47 0.50 0.51 0.55 0.61 0.74 0.83 0.88 0.95 1.03 1.10 1.24
0.74 0.62 0.56 0.40 0.31 0.27 0.25 0.22 0.19 0.20 0.22 0.24 0.25 0.22 0.16 0.14 0.12 0.14 0.15 0.16 0.19 0.22 0.24 0.26 0.25 0.23 0.27 0.29 0.32 0.38 0.42 0.41 0.43 0.48 0.55 0.59 0.63 0.72 0.81 0.82 0.83 0.87 0.93 1.00
0.49 0.45 0.40 0.32 0.26 0.22 0.21 0.18 0.15 0.14 0.15 0.17 0.20 0.26 0.25 0.22 0.17 0.15 0.16 0.18 0.21 0.24 0.25 0.23 0.23 0.22 0.25 0.28 0.35 0.47 0.52 0.50 0.49 0.50 0.57 0.65 0.68 0.70 0.76 0.78 0.79 0.81 0.82 0.88
0.35 0.35 0.36 0.30 0.24 0.20 0.19 0.16 0.14 0.15 0.17 0.17 0.18 0.21 0.24 0.26 0.23 0.20 0.20 0.20 0.22 0.22 0.23 0.21 0.21 0.23 0.26 0.29 0.33 0.38 0.42 0.46 0.50 0.54 0.56 0.62 0.71 0.78 0.84 0.90 0.85 0.77 0.78 0.85
0.33 0.33 0.35 0.30 0.23 0.20 0.21 0.22 0.21 0.20 0.19 0.17 0.17 0.21 0.22 0.22 0.23 0.21 0.21 0.21 0.20 0.22 0.21 0.20 0.20 0.22 0.26 0.28 0.29 0.32 0.38 0.46 0.55 0.60 0.60 0.62 0.74 0.88 0.93 0.95 0.92 0.83 0.75 0.75
0.31 0.28 0.28 0.29 0.25 0.20 0.21 0.23 0.24 0.24 0.21 0.19 0.19 0.20 0.23 0.24 0.27 0.28 0.27 0.27 0.25 0.24 0.23 0.22 0.22 0.23 0.24 0.27 0.30 0.34 0.40 0.52 0.62 0.68 0.64 0.65 0.70 0.75 0.78 0.84 0.85 0.82 0.80 0.82
0.34 0.36 0.35 0.34 0.30 0.25 0.23 0.23 0.24 0.26 0.24 0.23 0.23 0.26 0.30 0.33 0.34 0.31 0.32 0.35 0.34 0.32 0.31 0.32 0.30 0.29 0.30 0.32 0.36 0.43 0.50 0.53 0.58 0.65 0.64 0.62 0.64 0.64 0.68 0.74 0.73 0.73 0.74 0.80
0.33 0.35 0.39 0.43 0.43 0.36 0.30 0.27 0.28 0.32 0.31 0.27 0.25 0.31 0.36 0.37 0.37 0.37 0.37 0.37 0.37 0.35 0.36 0.39 0.40 0.38 0.38 0.41 0.45 0.48 0.52 0.55 0.55 0.63 0.67 0.63 0.62 0.65 0.70 0.72 0.72 0.70 0.69 0.71
0.30 0.31 0.33 0.39 0.43 0.44 0.39 0.36 0.35 0.35 0.33 0.32 0.33 0.39 0.43 0.40 0.38 0.36 0.38 0.42 0.45 0.45 0.43 0.42 0.47 0.43 0.41 0.47 0.53 0.54 0.55 0.56 0.57 0.62 0.65 0.65 0.65 0.68 0.73 0.77 0.76 0.73 0.73 0.73
0.33 0.34 0.36 0.38 0.39 0.43 0.43 0.43 0.42 0.42 0.39 0.39 0.41 0.44 0.46 0.43 0.40 0.40 0.41 0.43 0.45 0.45 0.44 0.48 0.45 0.41 0.42 0.46 0.52 0.52 0.56 0.59 0.63 0.66 0.67 0.71 0.76 0.79 0.78 0.79 0.81 0.79 0.76 0.75
0.33 0.36 0.40 0.41 0.39 0.39 0.44 0.45 0.46 0.47 0.46 0.43 0.43 0.45 0.45 0.42 0.42 0.45 0.49 0.50 0.46 0.44 0.46 0.51 0.48 0.46 0.46 0.51 0.53 0.50 0.54 0.56 0.60 0.66 0.69 0.73 0.79 0.82 0.79 0.79 0.81 0.85 0.88 0.84
0.31 0.34 0.37 0.38 0.40 0.42 0.46 0.47 0.44 0.40 0.41 0.43 0.42 0.42 0.43 0.45 0.45 0.45 0.46 0.50 0.50 0.53 0.53 0.54 0.54 0.60 0.64 0.61 0.52 0.51 0.54 0.57 0.63 0.71 0.74 0.76 0.81 0.85 0.83 0.80 0.82 0.85 0.89 0.93
0.29 0.32 0.37 0.39 0.42 0.45 0.47 0.49 0.48 0.43 0.39 0.43 0.48 0.51 0.53 0.55 0.54 0.53 0.55 0.53 0.56 0.59 0.50 0.52 0.66 0.77 0.79 0.65 0.59 0.57 0.56 0.60 0.68 0.77 0.82 0.84 0.88 0.91 0.92 0.90 0.91 0.92 0.96 1.03
0.30 0.31 0.36 0.40 0.40 0.43 0.50 0.54 0.51 0.47 0.42 0.45 0.52 0.56 0.58 0.59 0.56 0.54 0.59 0.64 0.68 0.65 0.52 0.54 0.66 0.75 0.77 0.67 0.67 0.66 0.66 0.69 0.75 0.79 0.82 0.87 0.94 0.99 0.99 1.02 1.03 1.01 1.00 1.05
0.31 0.33 0.36 0.41 0.43 0.44 0.47 0.47 0.46 0.46 0.46 0.49 0.50 0.52 0.54 0.56 0.58 0.58 0.56 0.58 0.65 0.67 0.61 0.64 0.72 0.75 0.68 0.67 0.72 0.75 0.76 0.78 0.84 0.89 0.92 0.97 1.01 1.05 1.06 1.07 1.09 1.12 1.14 1.15
0.35 0.36 0.38 0.42 0.44 0.45 0.45 0.45 0.46 0.45 0.45 0.48 0.50 0.50 0.52 0.52 0.52 0.54 0.54 0.55 0.58 0.64 0.64 0.66 0.67 0.70 0.66 0.66 0.69 0.71 0.72 0.76 0.83 0.89 0.91 0.97 1.02 1.07 1.08 1.08 1.07 1.11 1.17 1.21
0.36 0.35 0.36 0.37 0.38 0.39 0.41 0.43 0.47 0.51 0.51 0.50 0.52 0.51 0.51 0.54 0.54 0.53 0.53 0.54 0.57 0.60 0.64 0.70 0.73 0.72 0.72 0.75 0.76 0.72 0.71 0.72 0.73 0.77 0.84 0.90 0.98 1.06 1.10 1.12 1.15 1.18 1.23 1.28